{"data":{"norad_id":64277,"epoch":"2026-09-20T21:43:44.309280Z","epoch_age_seconds":102801,"freshness":"FRESH","line1":"1 64277U 25120X   26263.90537395  .00010175  00000+0  31189-3 0  9994","line2":"2 64277  53.1590 287.8709 0000557  95.3815 264.7252 15.34396465 73778","mean_motion":15.34396465,"eccentricity":5.57e-5,"inclination_deg":53.159,"raan_deg":287.8709,"arg_perigee_deg":95.3815,"mean_anomaly_deg":264.7252,"bstar":0.00031189,"rev_number":7377,"period_min":93.847974291312,"perigee_km":462.33271160564,"apogee_km":463.09478237885,"semimajor_km":6840.8507469922,"source":"CELESTRAK","updated_at":"2026-09-21T09:00:35.286068Z"}}